Location: Albuquerque Trailhead
(34.7934°N, 106.3736°W)
Time: 05:27:02
(UTC+00:00)

Cosmos 2228 Rocket - Pass Details

Date: 20 June 2021
Orbit: 616 x 653 km, 82.5° (Epoch: 29 July)

Event Time Altitude Azimuth Distance (km) Brightness Sun altitude
Rises 10:53:23 0° 355° (N) 2,944 7.0 -10.9°
Reaches altitude 10° 10:55:39 10° 358° (N) 2,025 6.2 -10.5°
Maximum altitude 11:00:08 72° 83° (E) 663 3.4 -9.8°
Drops below altitude 10° 11:04:32 10° 168° (SSE) 1,989 5.4 -9.0°
Sets 11:06:45 0° 170° (S) 2,886 6.2 -8.7°
